TimeCDT,TemperatureF,Dew PointF,Humidity,Sea Level PressureIn,VisibilityMPH,Wind Direction,Wind SpeedMPH,Gust SpeedMPH,PrecipitationIn,Events,Conditions,WindDirDegrees,DateUTC
12:53 AM,45.0,33.1,63,30.05,10.0,NW,3.5,-,N/A,,Partly Cloudy,310,2013-04-13 05:53:00
1:53 AM,44.1,33.1,65,30.05,10.0,Calm,Calm,-,N/A,,Partly Cloudy,0,2013-04-13 06:53:00
2:53 AM,45.0,33.1,63,30.04,10.0,WNW,3.5,-,N/A,,Clear,290,2013-04-13 07:53:00
3:53 AM,39.9,35.1,83,30.04,10.0,Calm,Calm,-,N/A,,Mostly Cloudy,0,2013-04-13 08:53:00
4:53 AM,44.1,34.0,68,30.04,10.0,Calm,Calm,-,N/A,,Overcast,0,2013-04-13 09:53:00
5:53 AM,42.1,36.0,79,30.04,10.0,Calm,Calm,-,N/A,,Overcast,0,2013-04-13 10:53:00
6:53 AM,43.0,36.0,76,30.05,10.0,Calm,Calm,-,N/A,,Overcast,0,2013-04-13 11:53:00
7:53 AM,46.0,37.9,73,30.08,10.0,South,5.8,-,N/A,,Clear,170,2013-04-13 12:53:00
8:53 AM,51.1,35.1,54,30.07,10.0,South,8.1,-,N/A,,Clear,170,2013-04-13 13:53:00
9:53 AM,54.0,34.0,47,30.07,10.0,SSE,8.1,-,N/A,,Clear,150,2013-04-13 14:53:00
10:53 AM,55.9,35.1,45,30.06,10.0,SSE,9.2,-,N/A,,Clear,150,2013-04-13 15:53:00
11:53 AM,55.9,37.0,49,30.06,10.0,NE,4.6,-,0.00,Rain,Light Rain,40,2013-04-13 16:53:00
12:53 PM,55.9,39.9,55,30.04,10.0,East,3.5,-,0.00,Rain,Light Rain,90,2013-04-13 17:53:00
1:53 PM,60.1,39.9,47,30.00,10.0,SE,8.1,-,0.00,Rain,Light Rain,140,2013-04-13 18:53:00
2:53 PM,63.0,39.0,41,29.96,10.0,SE,9.2,-,0.00,,Mostly Cloudy,130,2013-04-13 19:53:00
3:53 PM,66.0,41.0,40,29.93,10.0,ESE,9.2,-,N/A,,Clear,120,2013-04-13 20:53:00
4:53 PM,68.0,41.0,37,29.89,10.0,SSE,12.7,-,N/A,,Partly Cloudy,160,2013-04-13 21:53:00
5:53 PM,64.9,42.1,43,29.88,10.0,SSE,11.5,-,N/A,,Scattered Clouds,160,2013-04-13 22:53:00
6:53 PM,63.0,44.1,50,29.86,10.0,SE,10.4,-,N/A,,Clear,140,2013-04-13 23:53:00
7:53 PM,59.0,44.1,58,29.85,10.0,ESE,8.1,-,N/A,,Clear,120,2013-04-14 00:53:00
8:53 PM,57.0,43.0,59,29.85,10.0,ESE,6.9,-,N/A,,Clear,120,2013-04-14 01:53:00
9:53 PM,57.0,42.1,57,29.86,10.0,SE,9.2,-,N/A,,Clear,140,2013-04-14 02:53:00
10:53 PM,55.9,43.0,62,29.86,10.0,SE,10.4,-,N/A,,Clear,140,2013-04-14 03:53:00
11:53 PM,55.0,43.0,64,29.85,10.0,SE,9.2,-,N/A,,Clear,130,2013-04-14 04:53:00